Time,TemperatureF,DewpointF,PressureIn,WindDirection,WindDirectionDegrees,WindSpeedMPH,WindSpeedGustMPH,Humidity,HourlyPrecipIn,Conditions,Clouds,dailyrainin,SoftwareType,DateUTC
2013-04-12 00:00:00,50.7,40.7,29.87,North,0,0.0,0.0,68,0.00,,,0.00,WUHU21623XXSP,2013-04-12 07:00:00,
2013-04-12 00:05:00,50.7,40.9,29.87,North,0,0.0,0.0,69,0.00,,,0.00,WUHU21623XXSP,2013-04-12 07:05:00,
2013-04-12 00:10:00,50.7,40.9,29.87,North,0,0.0,0.0,69,0.00,,,0.00,WUHU21623XXSP,2013-04-12 07:10:00,
2013-04-12 00:15:00,50.5,40.8,29.87,North,0,0.0,0.0,69,0.00,,,0.00,WUHU21623XXSP,2013-04-12 07:15:00,
2013-04-12 00:20:00,50.5,40.8,29.87,North,0,0.0,0.0,69,0.00,,,0.00,WUHU21623XXSP,2013-04-12 07:20:00,
2013-04-12 00:25:00,50.5,40.6,29.88,North,0,0.0,0.0,69,0.00,,,0.00,WUHU21623XXSP,2013-04-12 07:25:00,
2013-04-12 00:30:00,50.9,41.5,29.87,North,0,0.0,0.0,70,0.00,,,0.00,WUHU21623XXSP,2013-04-12 07:30:00,
2013-04-12 00:35:00,50.7,41.4,29.88,North,0,0.0,0.0,70,0.00,,,0.00,WUHU21623XXSP,2013-04-12 07:35:00,
2013-04-12 00:40:00,50.7,41.4,29.87,North,0,0.0,0.0,70,0.00,,,0.00,WUHU21623XXSP,2013-04-12 07:40:00,
2013-04-12 00:45:00,50.5,41.2,29.87,North,0,0.0,0.0,70,0.00,,,0.00,WUHU21623XXSP,2013-04-12 07:45:00,
2013-04-12 00:50:00,50.2,41.2,29.88,North,0,0.0,0.0,71,0.00,,,0.00,WUHU21623XXSP,2013-04-12 07:50:00,
2013-04-12 00:55:00,49.8,40.8,29.87,North,0,0.0,0.0,71,0.00,,,0.00,WUHU21623XXSP,2013-04-12 07:55:00,
2013-04-12 01:00:00,49.3,40.3,29.88,North,0,0.0,0.0,71,0.00,,,0.00,WUHU21623XXSP,2013-04-12 08:00:00,
2013-04-12 01:05:00,49.3,40.3,29.88,North,0,0.0,0.0,71,0.00,,,0.00,WUHU21623XXSP,2013-04-12 08:05:00,
2013-04-12 01:10:00,49.3,40.6,29.87,North,0,0.0,0.0,72,0.00,,,0.00,WUHU21623XXSP,2013-04-12 08:10:00,
2013-04-12 01:15:00,49.1,40.4,29.87,North,0,0.0,0.0,72,0.00,,,0.00,WUHU21623XXSP,2013-04-12 08:15:00,
2013-04-12 01:20:00,48.9,40.2,29.87,North,0,0.0,0.0,72,0.00,,,0.00,WUHU21623XXSP,2013-04-12 08:20:00,
2013-04-12 01:25:00,48.9,40.6,29.87,North,0,0.0,0.0,73,0.00,,,0.00,WUHU21623XXSP,2013-04-12 08:25:00,
2013-04-12 01:30:00,48.6,40.2,29.87,North,0,0.0,0.0,73,0.00,,,0.00,WUHU21623XXSP,2013-04-12 08:30:00,
2013-04-12 01:35:00,48.4,40.0,29.87,North,0,0.0,0.0,73,0.00,,,0.00,WUHU21623XXSP,2013-04-12 08:35:00,
2013-04-12 01:40:00,48.4,40.0,29.87,North,0,0.0,0.0,73,0.00,,,0.00,WUHU21623XXSP,2013-04-12 08:40:00,
2013-04-12 01:45:00,48.2,39.9,29.87,North,0,0.0,0.0,73,0.00,,,0.00,WUHU21623XXSP,2013-04-12 08:45:00,
2013-04-12 01:50:00,48.0,39.7,29.87,North,0,0.0,0.0,73,0.00,,,0.00,WUHU21623XXSP,2013-04-12 08:50:00,
2013-04-12 01:55:00,48.0,40.0,29.87,North,0,0.0,0.0,74,0.00,,,0.00,WUHU21623XXSP,2013-04-12 08:55:00,
2013-04-12 02:00:00,48.0,40.0,29.87,North,0,0.0,0.0,74,0.00,,,0.00,WUHU21623XXSP,2013-04-12 09:00:00,
2013-04-12 02:05:00,47.8,39.9,29.86,North,0,0.0,0.0,74,0.00,,,0.00,WUHU21623XXSP,2013-04-12 09:05:00,
2013-04-12 02:10:00,47.8,39.9,29.86,North,0,0.0,0.0,74,0.00,,,0.00,WUHU21623XXSP,2013-04-12 09:10:00,
2013-04-12 02:15:00,47.7,39.7,29.86,North,0,0.0,0.0,74,0.00,,,0.00,WUHU21623XXSP,2013-04-12 09:15:00,
2013-04-12 02:20:00,47.7,40.1,29.86,North,0,0.0,0.0,75,0.00,,,0.00,WUHU21623XXSP,2013-04-12 09:20:00,
2013-04-12 02:25:00,47.5,39.9,29.85,North,0,0.0,0.0,75,0.00,,,0.00,WUHU21623XXSP,2013-04-12 09:25:00,
2013-04-12 02:30:00,47.5,39.9,29.86,North,0,0.0,0.0,75,0.00,,,0.00,WUHU21623XXSP,2013-04-12 09:30:00,
2013-04-12 02:35:00,47.5,39.9,29.86,North,0,0.0,0.0,75,0.00,,,0.00,WUHU21623XXSP,2013-04-12 09:35:00,
2013-04-12 02:40:00,47.3,39.7,29.85,North,0,0.0,0.0,75,0.00,,,0.00,WUHU21623XXSP,2013-04-12 09:40:00,
2013-04-12 02:45:00,47.1,39.6,29.85,North,0,0.0,0.0,75,0.00,,,0.00,WUHU21623XXSP,2013-04-12 09:45:00,
2013-04-12 02:50:00,47.1,39.6,29.85,North,0,0.0,0.0,75,0.00,,,0.00,WUHU21623XXSP,2013-04-12 09:50:00,
2013-04-12 02:55:00,48.0,40.4,29.85,North,0,0.0,0.0,75,0.00,,,0.00,WUHU21623XXSP,2013-04-12 09:55:00,
2013-04-12 03:00:00,47.8,40.2,29.85,North,0,0.0,0.0,75,0.00,,,0.00,WUHU21623XXSP,2013-04-12 10:00:00,
2013-04-12 03:05:00,47.5,39.9,29.85,North,0,0.0,0.0,75,0.00,,,0.00,WUHU21623XXSP,2013-04-12 10:05:00,
2013-04-12 03:10:00,47.1,39.6,29.85,North,0,0.0,0.0,75,0.00,,,0.00,WUHU21623XXSP,2013-04-12 10:10:00,
2013-04-12 03:15:00,46.9,39.4,29.85,North,0,0.0,0.0,75,0.00,,,0.00,WUHU21623XXSP,2013-04-12 10:15:00,
2013-04-12 03:20:00,46.9,39.4,29.85,North,0,0.0,0.0,75,0.00,,,0.00,WUHU21623XXSP,2013-04-12 10:20:00,
2013-04-12 03:25:00,47.1,39.6,29.86,North,0,0.0,0.0,75,0.00,,,0.00,WUHU21623XXSP,2013-04-12 10:25:00,
2013-04-12 03:30:00,46.9,39.4,29.85,North,0,0.0,0.0,75,0.00,,,0.00,WUHU21623XXSP,2013-04-12 10:30:00,
2013-04-12 03:35:00,46.9,39.4,29.85,North,0,0.0,0.0,75,0.00,,,0.00,WUHU21623XXSP,2013-04-12 10:35:00,
2013-04-12 03:40:00,46.8,39.3,29.85,North,0,0.0,0.0,75,0.00,,,0.00,WUHU21623XXSP,2013-04-12 10:40:00,
2013-04-12 03:45:00,46.8,39.3,29.85,North,0,0.0,0.0,75,0.00,,,0.00,WUHU21623XXSP,2013-04-12 10:45:00,
2013-04-12 03:50:00,46.6,39.1,29.85,North,0,0.0,0.0,75,0.00,,,0.00,WUHU21623XXSP,2013-04-12 10:50:00,
2013-04-12 03:55:00,46.2,39.1,29.85,North,0,0.0,0.0,76,0.00,,,0.00,WUHU21623XXSP,2013-04-12 10:55:00,
2013-04-12 04:00:00,46.2,39.1,29.86,North,0,0.0,0.0,76,0.00,,,0.00,WUHU21623XXSP,2013-04-12 11:00:00,
2013-04-12 04:05:00,46.6,39.4,29.86,North,0,0.0,0.0,76,0.00,,,0.00,WUHU21623XXSP,2013-04-12 11:05:00,
2013-04-12 04:10:00,47.3,40.1,29.86,North,0,0.0,0.0,76,0.00,,,0.00,WUHU21623XXSP,2013-04-12 11:10:00,
2013-04-12 04:15:00,47.8,40.6,29.86,North,0,0.0,0.0,76,0.00,,,0.00,WUHU21623XXSP,2013-04-12 11:15:00,
2013-04-12 04:20:00,48.0,40.7,29.85,North,0,0.0,0.0,76,0.00,,,0.00,WUHU21623XXSP,2013-04-12 11:20:00,
2013-04-12 04:25:00,48.6,41.3,29.86,North,0,0.0,0.0,76,0.00,,,0.00,WUHU21623XXSP,2013-04-12 11:25:00,
2013-04-12 04:30:00,48.7,41.4,29.86,North,0,0.0,0.0,76,0.00,,,0.00,WUHU21623XXSP,2013-04-12 11:30:00,
2013-04-12 04:35:00,48.9,42.0,29.86,North,0,0.0,0.0,77,0.00,,,0.00,WUHU21623XXSP,2013-04-12 11:35:00,
2013-04-12 04:40:00,48.9,42.0,29.86,North,0,0.0,0.0,77,0.00,,,0.00,WUHU21623XXSP,2013-04-12 11:40:00,
2013-04-12 04:45:00,48.9,42.0,29.85,North,0,0.0,0.0,77,0.00,,,0.00,WUHU21623XXSP,2013-04-12 11:45:00,
2013-04-12 04:50:00,48.9,42.0,29.85,North,0,0.0,0.0,77,0.00,,,0.00,WUHU21623XXSP,2013-04-12 11:50:00,
2013-04-12 04:55:00,48.9,42.0,29.86,North,0,0.0,0.0,77,0.00,,,0.00,WUHU21623XXSP,2013-04-12 11:55:00,
2013-04-12 05:00:00,48.9,42.0,29.86,North,0,0.0,0.0,77,0.00,,,0.00,WUHU21623XXSP,2013-04-12 12:00:00,
2013-04-12 05:05:00,48.9,42.3,29.86,North,0,0.0,0.0,78,0.00,,,0.00,WUHU21623XXSP,2013-04-12 12:05:00,
2013-04-12 05:10:00,48.9,42.3,29.86,North,0,0.0,0.0,77,0.00,,,0.00,WUHU21623XXSP,2013-04-12 12:10:00,
2013-04-12 05:15:00,48.7,41.8,29.85,North,0,0.0,0.0,77,0.00,,,0.00,WUHU21623XXSP,2013-04-12 12:15:00,
2013-04-12 05:20:00,48.6,41.8,29.86,North,0,0.0,0.0,77,0.00,,,0.00,WUHU21623XXSP,2013-04-12 12:20:00,
2013-04-12 05:25:00,48.2,41.6,29.86,North,0,0.0,0.0,78,0.00,,,0.00,WUHU21623XXSP,2013-04-12 12:25:00,
2013-04-12 05:30:00,48.4,41.8,29.86,North,0,0.0,0.0,78,0.00,,,0.00,WUHU21623XXSP,2013-04-12 12:30:00,
2013-04-12 05:35:00,48.4,41.8,29.86,North,0,0.0,0.0,78,0.00,,,0.00,WUHU21623XXSP,2013-04-12 12:35:00,
2013-04-12 05:41:00,48.7,42.1,29.86,North,0,0.0,0.0,78,0.00,,,0.00,WUHU21623XXSP,2013-04-12 12:41:00,
2013-04-12 05:46:00,48.7,42.1,29.86,North,0,0.0,0.0,78,0.00,,,0.00,WUHU21623XXSP,2013-04-12 12:46:00,
2013-04-12 05:51:00,48.7,42.1,29.86,North,0,0.0,0.0,78,0.00,,,0.00,WUHU21623XXSP,2013-04-12 12:51:00,
2013-04-12 05:56:00,48.7,42.1,29.86,North,0,0.0,0.0,78,0.00,,,0.00,WUHU21623XXSP,2013-04-12 12:56:00,
2013-04-12 06:01:00,48.7,42.1,29.86,North,0,0.0,0.0,78,0.00,,,0.00,WUHU21623XXSP,2013-04-12 13:01:00,
2013-04-12 06:06:00,48.7,42.1,29.86,North,0,0.0,0.0,78,0.00,,,0.00,WUHU21623XXSP,2013-04-12 13:06:00,
2013-04-12 06:11:00,48.7,42.1,29.86,North,0,0.0,0.0,78,0.00,,,0.00,WUHU21623XXSP,2013-04-12 13:11:00,
2013-04-12 06:16:00,48.9,42.3,29.86,North,0,0.0,0.0,78,0.00,,,0.00,WUHU21623XXSP,2013-04-12 13:16:00,
2013-04-12 06:21:00,48.9,42.3,29.86,North,0,0.0,0.0,78,0.00,,,0.00,WUHU21623XXSP,2013-04-12 13:21:00,
2013-04-12 06:26:00,48.9,42.3,29.85,North,0,0.0,0.0,78,0.00,,,0.00,WUHU21623XXSP,2013-04-12 13:26:00,
2013-04-12 06:31:00,48.7,42.1,29.86,North,0,0.0,0.0,78,0.00,,,0.00,WUHU21623XXSP,2013-04-12 13:31:00,
2013-04-12 06:36:00,48.7,42.5,29.86,North,0,0.0,0.0,79,0.00,,,0.00,WUHU21623XXSP,2013-04-12 13:36:00,
2013-04-12 06:41:00,48.6,42.3,29.86,North,0,0.0,0.0,79,0.00,,,0.00,WUHU21623XXSP,2013-04-12 13:41:00,
2013-04-12 06:46:00,48.6,42.3,29.86,North,0,0.0,0.0,79,0.00,,,0.00,WUHU21623XXSP,2013-04-12 13:46:00,
2013-04-12 06:51:00,48.6,42.3,29.86,North,0,0.0,0.0,79,0.00,,,0.00,WUHU21623XXSP,2013-04-12 13:51:00,
2013-04-12 06:56:00,48.7,42.5,29.87,North,0,0.0,0.0,79,0.00,,,0.00,WUHU21623XXSP,2013-04-12 13:56:00,
2013-04-12 07:01:00,48.7,42.5,29.87,North,0,0.0,0.0,79,0.00,,,0.00,WUHU21623XXSP,2013-04-12 14:01:00,
2013-04-12 07:06:00,48.7,42.5,29.87,North,0,0.0,0.0,79,0.00,,,0.00,WUHU21623XXSP,2013-04-12 14:06:00,
2013-04-12 07:11:00,48.9,42.6,29.88,North,0,0.0,0.0,79,0.00,,,0.00,WUHU21623XXSP,2013-04-12 14:11:00,
2013-04-12 07:16:00,48.9,42.6,29.88,North,0,0.0,0.0,79,0.00,,,0.00,WUHU21623XXSP,2013-04-12 14:16:00,
2013-04-12 07:21:00,48.7,42.5,29.87,North,0,0.0,0.0,79,0.00,,,0.00,WUHU21623XXSP,2013-04-12 14:21:00,
2013-04-12 07:26:00,48.7,42.5,29.88,North,0,0.0,0.0,79,0.00,,,0.00,WUHU21623XXSP,2013-04-12 14:26:00,
2013-04-12 07:31:00,48.7,42.5,29.88,North,0,0.0,0.0,79,0.00,,,0.00,WUHU21623XXSP,2013-04-12 14:31:00,
2013-04-12 07:36:00,48.7,42.5,29.88,North,0,0.0,0.0,79,0.00,,,0.00,WUHU21623XXSP,2013-04-12 14:36:00,
2013-04-12 07:41:00,48.9,42.6,29.88,North,0,0.0,0.0,79,0.00,,,0.00,WUHU21623XXSP,2013-04-12 14:41:00,
2013-04-12 07:46:00,49.3,43.0,29.88,North,0,0.0,0.0,79,0.00,,,0.00,WUHU21623XXSP,2013-04-12 14:46:00,
2013-04-12 07:52:00,49.6,43.4,29.88,North,0,0.0,0.0,79,0.00,,,0.00,WUHU21623XXSP,2013-04-12 14:52:00,
2013-04-12 07:57:00,49.8,43.5,29.88,North,0,0.0,0.0,79,0.00,,,0.00,WUHU21623XXSP,2013-04-12 14:57:00,
2013-04-12 08:02:00,50.4,44.1,29.88,North,0,0.0,0.0,79,0.00,,,0.00,WUHU21623XXSP,2013-04-12 15:02:00,
2013-04-12 08:07:00,50.7,44.4,29.88,North,0,0.0,0.0,79,0.00,,,0.00,WUHU21623XXSP,2013-04-12 15:07:00,
2013-04-12 08:12:00,51.1,44.8,29.88,North,0,0.0,0.0,79,0.00,,,0.00,WUHU21623XXSP,2013-04-12 15:12:00,
2013-04-12 08:17:00,51.3,45.0,29.89,North,0,0.0,0.0,79,0.00,,,0.00,WUHU21623XXSP,2013-04-12 15:17:00,
2013-04-12 08:22:00,51.6,45.3,29.89,North,0,0.0,0.0,79,0.00,,,0.00,WUHU21623XXSP,2013-04-12 15:22:00,
2013-04-12 08:27:00,51.6,45.3,29.89,North,0,0.0,0.0,79,0.00,,,0.00,WUHU21623XXSP,2013-04-12 15:27:00,
2013-04-12 08:32:00,51.6,45.0,29.89,North,0,0.0,0.0,78,0.00,,,0.00,WUHU21623XXSP,2013-04-12 15:32:00,
2013-04-12 08:37:00,52.2,45.3,29.89,North,0,0.0,0.0,78,0.00,,,0.00,WUHU21623XXSP,2013-04-12 15:37:00,
2013-04-12 08:42:00,51.6,44.7,29.89,North,0,0.0,0.0,77,0.00,,,0.00,WUHU21623XXSP,2013-04-12 15:42:00,
2013-04-12 08:47:00,51.4,44.1,29.89,North,0,0.0,0.0,76,0.00,,,0.00,WUHU21623XXSP,2013-04-12 15:47:00,
2013-04-12 08:52:00,52.0,44.7,29.89,North,0,0.0,0.0,76,0.00,,,0.00,WUHU21623XXSP,2013-04-12 15:52:00,
2013-04-12 08:57:00,52.7,45.4,29.89,North,0,0.0,0.0,76,0.00,,,0.00,WUHU21623XXSP,2013-04-12 15:57:00,
2013-04-12 09:02:00,53.8,45.7,29.89,North,0,0.0,0.0,74,0.00,,,0.00,WUHU21623XXSP,2013-04-12 16:02:00,
2013-04-12 09:07:00,54.7,46.2,29.89,North,0,0.0,0.0,73,0.00,,,0.00,WUHU21623XXSP,2013-04-12 16:07:00,
2013-04-12 09:12:00,55.2,46.0,29.89,North,0,0.0,0.0,71,0.00,,,0.00,WUHU21623XXSP,2013-04-12 16:12:00,
2013-04-12 09:17:00,55.6,46.0,29.89,North,0,0.0,0.0,70,0.00,,,0.00,WUHU21623XXSP,2013-04-12 16:17:00,
2013-04-12 09:22:00,55.9,46.3,29.89,North,0,0.0,0.0,70,0.00,,,0.00,WUHU21623XXSP,2013-04-12 16:22:00,
2013-04-12 09:27:00,56.8,46.7,29.89,North,0,0.0,0.0,69,0.00,,,0.00,WUHU21623XXSP,2013-04-12 16:27:00,
2013-04-12 09:32:00,56.5,46.0,29.90,North,0,0.0,0.0,68,0.00,,,0.00,WUHU21623XXSP,2013-04-12 16:32:00,
2013-04-12 09:37:00,57.0,46.5,29.90,North,0,0.0,0.0,68,0.00,,,0.00,WUHU21623XXSP,2013-04-12 16:37:00,
2013-04-12 09:42:00,57.0,46.5,29.90,North,0,0.0,0.0,68,0.00,,,0.00,WUHU21623XXSP,2013-04-12 16:42:00,
2013-04-12 09:47:00,57.0,46.1,29.91,North,0,0.0,0.0,67,0.00,,,0.00,WUHU21623XXSP,2013-04-12 16:47:00,
2013-04-12 09:52:00,57.4,46.5,29.91,North,0,0.0,0.0,67,0.00,,,0.00,WUHU21623XXSP,2013-04-12 16:52:00,
2013-04-12 09:57:00,57.6,46.2,29.91,North,0,0.0,0.0,66,0.00,,,0.00,WUHU21623XXSP,2013-04-12 16:57:00,
2013-04-12 10:02:00,59.2,48.2,29.91,North,0,0.0,0.0,67,0.00,,,0.00,WUHU21623XXSP,2013-04-12 17:02:00,
2013-04-12 10:07:00,60.1,48.3,29.91,North,0,0.0,0.0,65,0.00,,,0.00,WUHU21623XXSP,2013-04-12 17:07:00,
2013-04-12 10:12:00,60.4,48.2,29.91,North,0,0.0,0.0,64,0.00,,,0.00,WUHU21623XXSP,2013-04-12 17:12:00,
2013-04-12 10:17:00,60.8,48.2,29.91,North,0,0.0,0.0,63,0.00,,,0.00,WUHU21623XXSP,2013-04-12 17:17:00,
2013-04-12 10:22:00,61.0,48.8,29.91,North,0,0.0,0.0,64,0.00,,,0.00,WUHU21623XXSP,2013-04-12 17:22:00,
2013-04-12 10:27:00,61.5,48.4,29.91,North,0,0.0,0.0,62,0.00,,,0.00,WUHU21623XXSP,2013-04-12 17:27:00,
2013-04-12 10:32:00,62.6,48.6,29.91,North,0,0.0,0.0,60,0.00,,,0.00,WUHU21623XXSP,2013-04-12 17:32:00,
2013-04-12 10:37:00,63.7,49.0,29.91,North,0,0.0,0.0,60,0.00,,,0.00,WUHU21623XXSP,2013-04-12 17:37:00,
2013-04-12 10:42:00,64.9,49.7,29.91,North,0,0.0,0.0,58,0.00,,,0.00,WUHU21623XXSP,2013-04-12 17:42:00,
2013-04-12 10:47:00,64.9,49.7,29.91,North,0,0.0,0.0,58,0.00,,,0.00,WUHU21623XXSP,2013-04-12 17:47:00,
2013-04-12 10:52:00,65.1,50.4,29.91,North,0,0.0,0.0,59,0.00,,,0.00,WUHU21623XXSP,2013-04-12 17:52:00,
2013-04-12 10:57:00,66.0,49.4,29.91,North,0,0.0,0.0,55,0.00,,,0.00,WUHU21623XXSP,2013-04-12 17:57:00,
2013-04-12 11:02:00,66.2,49.5,29.91,North,0,0.0,0.0,55,0.00,,,0.00,WUHU21623XXSP,2013-04-12 18:02:00,
2013-04-12 11:08:00,66.6,49.9,29.91,North,0,0.0,0.0,55,0.00,,,0.00,WUHU21623XXSP,2013-04-12 18:08:00,
2013-04-12 11:13:00,67.3,50.0,29.91,North,0,0.0,0.0,54,0.00,,,0.00,WUHU21623XXSP,2013-04-12 18:13:00,
2013-04-12 11:18:00,67.6,50.4,29.91,North,0,0.0,0.0,54,0.00,,,0.00,WUHU21623XXSP,2013-04-12 18:18:00,
2013-04-12 11:23:00,68.4,49.1,29.90,North,0,0.0,0.0,50,0.00,,,0.00,WUHU21623XXSP,2013-04-12 18:23:00,
2013-04-12 11:29:00,69.1,50.2,29.91,North,0,0.0,0.0,51,0.00,,,0.00,WUHU21623XXSP,2013-04-12 18:29:00,
2013-04-12 11:33:00,69.3,49.3,29.91,North,0,0.0,0.0,49,0.00,,,0.00,WUHU21623XXSP,2013-04-12 18:33:00,
2013-04-12 11:40:00,69.8,48.0,29.90,North,0,0.0,0.0,46,0.00,,,0.00,WUHU21623XXSP,2013-04-12 18:40:00,
2013-04-12 11:46:00,72.0,51.1,29.90,North,0,0.0,0.0,48,0.00,,,0.00,WUHU21623XXSP,2013-04-12 18:46:00,
2013-04-12 11:53:00,71.4,49.4,29.91,North,0,0.0,0.0,46,0.00,,,0.00,WUHU21623XXSP,2013-04-12 18:53:00,
2013-04-12 11:59:00,72.3,49.1,29.91,North,0,0.0,0.0,44,0.00,,,0.00,WUHU21623XXSP,2013-04-12 18:59:00,
2013-04-12 12:05:00,73.8,51.0,29.90,North,0,0.0,0.0,45,0.00,,,0.00,WUHU21623XXSP,2013-04-12 19:05:00,
2013-04-12 12:26:00,74.8,53.2,29.90,North,0,0.0,0.0,47,0.00,,,0.00,WUHU21623XXSP,2013-04-12 19:26:00,
2013-04-12 12:36:00,75.4,52.5,29.90,North,0,0.0,0.0,45,0.00,,,0.00,WUHU21623XXSP,2013-04-12 19:36:00,
2013-04-12 12:41:00,75.6,52.7,29.89,North,0,0.0,0.0,45,0.00,,,0.00,WUHU21623XXSP,2013-04-12 19:41:00,
2013-04-12 12:46:00,75.0,52.2,29.89,North,0,0.0,0.0,45,0.00,,,0.00,WUHU21623XXSP,2013-04-12 19:46:00,
2013-04-12 12:51:00,74.7,51.0,29.89,North,0,0.0,0.0,44,0.00,,,0.00,WUHU21623XXSP,2013-04-12 19:51:00,
2013-04-12 12:56:00,75.9,53.0,29.89,North,0,0.0,0.0,45,0.00,,,0.00,WUHU21623XXSP,2013-04-12 19:56:00,
2013-04-12 13:01:00,75.9,52.4,29.89,North,0,0.0,0.0,44,0.00,,,0.00,WUHU21623XXSP,2013-04-12 20:01:00,
2013-04-12 13:06:00,75.7,51.0,29.89,North,0,0.0,0.0,42,0.00,,,0.00,WUHU21623XXSP,2013-04-12 20:06:00,
2013-04-12 13:11:00,76.6,51.8,29.89,North,0,0.0,0.0,42,0.00,,,0.00,WUHU21623XXSP,2013-04-12 20:11:00,
2013-04-12 13:17:00,76.1,52.5,29.88,North,0,0.0,0.0,44,0.00,,,0.00,WUHU21623XXSP,2013-04-12 20:17:00,
2013-04-12 13:22:00,76.8,52.6,29.88,North,0,0.0,0.0,43,0.00,,,0.00,WUHU21623XXSP,2013-04-12 20:22:00,
2013-04-12 13:27:00,77.2,51.1,29.89,North,0,0.0,0.0,40,0.00,,,0.00,WUHU21623XXSP,2013-04-12 20:27:00,
2013-04-12 13:32:00,77.7,51.5,29.89,North,0,0.0,0.0,40,0.00,,,0.00,WUHU21623XXSP,2013-04-12 20:32:00,
2013-04-12 13:37:00,77.7,51.5,29.88,North,0,0.0,0.0,40,0.00,,,0.00,WUHU21623XXSP,2013-04-12 20:37:00,
2013-04-12 13:42:00,77.9,52.9,29.88,North,0,0.0,0.0,42,0.00,,,0.00,WUHU21623XXSP,2013-04-12 20:42:00,
2013-04-12 13:47:00,77.7,51.5,29.88,North,0,0.0,0.0,40,0.00,,,0.00,WUHU21623XXSP,2013-04-12 20:47:00,
2013-04-12 13:52:00,77.0,53.3,29.88,North,0,0.0,0.0,44,0.00,,,0.00,WUHU21623XXSP,2013-04-12 20:52:00,
2013-04-12 13:57:00,77.7,52.8,29.88,North,0,0.0,0.0,42,0.00,,,0.00,WUHU21623XXSP,2013-04-12 20:57:00,
2013-04-12 14:02:00,77.5,51.4,29.87,North,0,0.0,0.0,40,0.00,,,0.00,WUHU21623XXSP,2013-04-12 21:02:00,
2013-04-12 14:07:00,77.7,51.5,29.87,North,0,0.0,0.0,40,0.00,,,0.00,WUHU21623XXSP,2013-04-12 21:07:00,
2013-04-12 14:12:00,77.5,49.9,29.87,North,0,0.0,0.0,38,0.00,,,0.00,WUHU21623XXSP,2013-04-12 21:12:00,
2013-04-12 14:17:00,77.9,50.2,29.87,North,0,0.0,0.0,38,0.00,,,0.00,WUHU21623XXSP,2013-04-12 21:17:00,
2013-04-12 14:22:00,78.1,50.3,29.86,North,0,0.0,0.0,38,0.00,,,0.00,WUHU21623XXSP,2013-04-12 21:22:00,
2013-04-12 14:27:00,79.2,50.5,29.86,North,0,0.0,0.0,37,0.00,,,0.00,WUHU21623XXSP,2013-04-12 21:27:00,
2013-04-12 14:32:00,78.6,50.0,29.86,North,0,0.0,0.0,37,0.00,,,0.00,WUHU21623XXSP,2013-04-12 21:32:00,
2013-04-12 14:37:00,79.0,51.1,29.86,North,0,0.0,0.0,38,0.00,,,0.00,WUHU21623XXSP,2013-04-12 21:37:00,
2013-04-12 14:42:00,78.6,50.0,29.87,North,0,0.0,0.0,37,0.00,,,0.00,WUHU21623XXSP,2013-04-12 21:42:00,
2013-04-12 14:47:00,78.6,51.6,29.86,North,0,0.0,0.0,39,0.00,,,0.00,WUHU21623XXSP,2013-04-12 21:47:00,
2013-04-12 14:52:00,78.4,50.6,29.86,North,0,0.0,0.0,38,0.00,,,0.00,WUHU21623XXSP,2013-04-12 21:52:00,
2013-04-12 14:57:00,78.4,53.4,29.86,North,0,0.0,0.0,42,0.00,,,0.00,WUHU21623XXSP,2013-04-12 21:57:00,
2013-04-12 15:02:00,78.6,50.0,29.86,North,0,0.0,0.0,37,0.00,,,0.00,WUHU21623XXSP,2013-04-12 22:02:00,
2013-04-12 15:07:00,78.6,52.4,29.85,North,0,0.0,0.0,40,0.00,,,0.00,WUHU21623XXSP,2013-04-12 22:07:00,
2013-04-12 15:12:00,78.6,51.6,29.85,North,0,0.0,0.0,39,0.00,,,0.00,WUHU21623XXSP,2013-04-12 22:12:00,
2013-04-12 15:18:00,79.0,51.9,29.85,North,0,0.0,0.0,39,0.00,,,0.00,WUHU21623XXSP,2013-04-12 22:18:00,
2013-04-12 15:23:00,78.4,51.4,29.85,North,0,0.0,0.0,39,0.00,,,0.00,WUHU21623XXSP,2013-04-12 22:23:00,
2013-04-12 15:28:00,78.1,52.5,29.85,North,0,0.0,0.0,41,0.00,,,0.00,WUHU21623XXSP,2013-04-12 22:28:00,
2013-04-12 15:33:00,77.7,52.2,29.85,North,0,0.0,0.0,41,0.00,,,0.00,WUHU21623XXSP,2013-04-12 22:33:00,
2013-04-12 15:38:00,77.9,51.7,29.85,North,0,0.0,0.0,40,0.00,,,0.00,WUHU21623XXSP,2013-04-12 22:38:00,
2013-04-12 15:43:00,77.9,51.7,29.85,North,0,0.0,0.0,40,0.00,,,0.00,WUHU21623XXSP,2013-04-12 22:43:00,
2013-04-12 15:48:00,77.7,51.5,29.85,North,0,0.0,0.0,40,0.00,,,0.00,WUHU21623XXSP,2013-04-12 22:48:00,
2013-04-12 15:53:00,77.5,52.0,29.85,North,0,0.0,0.0,41,0.00,,,0.00,WUHU21623XXSP,2013-04-12 22:53:00,
2013-04-12 15:58:00,77.9,51.7,29.85,North,0,0.0,0.0,40,0.00,,,0.00,WUHU21623XXSP,2013-04-12 22:58:00,
2013-04-12 16:03:00,77.7,51.5,29.85,North,0,0.0,0.0,40,0.00,,,0.00,WUHU21623XXSP,2013-04-12 23:03:00,
2013-04-12 16:08:00,77.5,50.6,29.85,North,0,0.0,0.0,39,0.00,,,0.00,WUHU21623XXSP,2013-04-12 23:08:00,
2013-04-12 16:13:00,77.4,51.2,29.85,North,0,0.0,0.0,40,0.00,,,0.00,WUHU21623XXSP,2013-04-12 23:13:00,
2013-04-12 16:18:00,77.2,50.3,29.84,North,0,0.0,0.0,39,0.00,,,0.00,WUHU21623XXSP,2013-04-12 23:18:00,
2013-04-12 16:23:00,77.2,49.5,29.85,North,0,0.0,0.0,38,0.00,,,0.00,WUHU21623XXSP,2013-04-12 23:23:00,
2013-04-12 16:28:00,77.4,49.7,29.85,North,0,0.0,0.0,38,0.00,,,0.00,WUHU21623XXSP,2013-04-12 23:28:00,
2013-04-12 16:33:00,77.5,49.1,29.85,North,0,0.0,0.0,37,0.00,,,0.00,WUHU21623XXSP,2013-04-12 23:33:00,
2013-04-12 16:38:00,77.2,50.3,29.85,North,0,0.0,0.0,39,0.00,,,0.00,WUHU21623XXSP,2013-04-12 23:38:00,
2013-04-12 16:43:00,77.0,50.1,29.84,North,0,0.0,0.0,39,0.00,,,0.00,WUHU21623XXSP,2013-04-12 23:43:00,
2013-04-12 16:48:00,77.4,50.5,29.84,North,0,0.0,0.0,39,0.00,,,0.00,WUHU21623XXSP,2013-04-12 23:48:00,
2013-04-12 16:53:00,77.0,50.3,29.85,North,0,0.0,0.0,39,0.00,,,0.00,WUHU21623XXSP,2013-04-12 23:53:00,
2013-04-12 16:58:00,76.6,49.8,29.85,North,0,0.0,0.0,39,0.00,,,0.00,WUHU21623XXSP,2013-04-12 23:58:00,
2013-04-12 17:03:00,76.8,51.4,29.85,North,0,0.0,0.0,41,0.00,,,0.00,WUHU21623XXSP,2013-04-13 00:03:00,
2013-04-12 17:08:00,76.6,48.3,29.84,North,0,0.0,0.0,37,0.00,,,0.00,WUHU21623XXSP,2013-04-13 00:08:00,
2013-04-12 17:13:00,76.3,48.7,29.84,North,0,0.0,0.0,38,0.00,,,0.00,WUHU21623XXSP,2013-04-13 00:13:00,
2013-04-12 17:18:00,76.1,48.6,29.85,North,0,0.0,0.0,38,0.00,,,0.00,WUHU21623XXSP,2013-04-13 00:18:00,
2013-04-12 17:23:00,76.3,48.0,29.85,North,0,0.0,0.0,37,0.00,,,0.00,WUHU21623XXSP,2013-04-13 00:23:00,
2013-04-12 17:28:00,76.3,48.0,29.85,North,0,0.0,0.0,37,0.00,,,0.00,WUHU21623XXSP,2013-04-13 00:28:00,
2013-04-12 17:33:00,75.9,46.9,29.85,North,0,0.0,0.0,36,0.00,,,0.00,WUHU21623XXSP,2013-04-13 00:33:00,
2013-04-12 17:38:00,75.9,47.7,29.85,North,0,0.0,0.0,37,0.00,,,0.00,WUHU21623XXSP,2013-04-13 00:38:00,
2013-04-12 17:43:00,75.7,47.5,29.85,North,0,0.0,0.0,37,0.00,,,0.00,WUHU21623XXSP,2013-04-13 00:43:00,
2013-04-12 17:48:00,75.4,47.9,29.85,North,0,0.0,0.0,38,0.00,,,0.00,WUHU21623XXSP,2013-04-13 00:48:00,
2013-04-12 17:53:00,75.0,47.6,29.85,North,0,0.0,0.0,38,0.00,,,0.00,WUHU21623XXSP,2013-04-13 00:53:00,
2013-04-12 17:58:00,74.8,47.4,29.85,North,0,0.0,0.0,38,0.00,,,0.00,WUHU21623XXSP,2013-04-13 00:58:00,
2013-04-12 18:03:00,75.4,47.9,29.85,North,0,0.0,0.0,38,0.00,,,0.00,WUHU21623XXSP,2013-04-13 01:03:00,
2013-04-12 18:08:00,75.4,47.9,29.86,North,0,0.0,0.0,38,0.00,,,0.00,WUHU21623XXSP,2013-04-13 01:08:00,
2013-04-12 18:13:00,75.4,47.9,29.85,North,0,0.0,0.0,38,0.00,,,0.00,WUHU21623XXSP,2013-04-13 01:13:00,
2013-04-12 18:18:00,75.0,49.1,29.85,North,0,0.0,0.0,40,0.00,,,0.00,WUHU21623XXSP,2013-04-13 01:18:00,
2013-04-12 18:23:00,74.5,49.0,29.85,North,0,0.0,0.0,41,0.00,,,0.00,WUHU21623XXSP,2013-04-13 01:23:00,
2013-04-12 18:28:00,74.1,48.9,29.85,North,0,0.0,0.0,42,0.00,,,0.00,WUHU21623XXSP,2013-04-13 01:28:00,
2013-04-12 18:33:00,73.2,49.9,29.86,North,0,0.0,0.0,44,0.00,,,0.00,WUHU21623XXSP,2013-04-13 01:33:00,
2013-04-12 18:38:00,72.9,49.5,29.86,North,0,0.0,0.0,44,0.00,,,0.00,WUHU21623XXSP,2013-04-13 01:38:00,
2013-04-12 18:43:00,72.1,49.5,29.86,North,0,0.0,0.0,45,0.00,,,0.00,WUHU21623XXSP,2013-04-13 01:43:00,
2013-04-12 18:48:00,70.9,49.5,29.86,North,0,0.0,0.0,47,0.00,,,0.00,WUHU21623XXSP,2013-04-13 01:48:00,
2013-04-12 18:53:00,70.3,49.7,29.86,North,0,0.0,0.0,48,0.00,,,0.00,WUHU21623XXSP,2013-04-13 01:53:00,
2013-04-12 18:58:00,69.6,49.0,29.86,North,0,0.0,0.0,48,0.00,,,0.00,WUHU21623XXSP,2013-04-13 01:58:00,
2013-04-12 19:03:00,68.9,49.0,29.87,North,0,0.0,0.0,49,0.00,,,0.00,WUHU21623XXSP,2013-04-13 02:03:00,
2013-04-12 19:08:00,68.5,49.2,29.86,North,0,0.0,0.0,50,0.00,,,0.00,WUHU21623XXSP,2013-04-13 02:08:00,
2013-04-12 19:13:00,68.2,49.4,29.87,North,0,0.0,0.0,51,0.00,,,0.00,WUHU21623XXSP,2013-04-13 02:13:00,
2013-04-12 19:18:00,67.3,49.1,29.87,North,0,0.0,0.0,52,0.00,,,0.00,WUHU21623XXSP,2013-04-13 02:18:00,
2013-04-12 19:23:00,67.1,48.9,29.88,North,0,0.0,0.0,52,0.00,,,0.00,WUHU21623XXSP,2013-04-13 02:23:00,
2013-04-12 19:28:00,66.7,48.7,29.88,North,0,0.0,0.0,53,0.00,,,0.00,WUHU21623XXSP,2013-04-13 02:28:00,
2013-04-12 19:33:00,66.0,48.9,29.88,North,0,0.0,0.0,54,0.00,,,0.00,WUHU21623XXSP,2013-04-13 02:33:00,
2013-04-12 19:38:00,65.8,48.7,29.88,North,0,0.0,0.0,54,0.00,,,0.00,WUHU21623XXSP,2013-04-13 02:38:00,
2013-04-12 19:43:00,65.1,48.0,29.88,North,0,0.0,0.0,54,0.00,,,0.00,WUHU21623XXSP,2013-04-13 02:43:00,
2013-04-12 19:48:00,64.4,47.8,29.88,North,0,0.0,0.0,55,0.00,,,0.00,WUHU21623XXSP,2013-04-13 02:48:00,
2013-04-12 19:53:00,63.7,47.6,29.88,North,0,0.0,0.0,56,0.00,,,0.00,WUHU21623XXSP,2013-04-13 02:53:00,
2013-04-12 19:58:00,63.1,47.1,29.89,North,0,0.0,0.0,56,0.00,,,0.00,WUHU21623XXSP,2013-04-13 02:58:00,
2013-04-12 20:03:00,62.8,47.3,29.89,North,0,0.0,0.0,57,0.00,,,0.00,WUHU21623XXSP,2013-04-13 03:03:00,
2013-04-12 20:08:00,62.4,46.9,29.89,North,0,0.0,0.0,57,0.00,,,0.00,WUHU21623XXSP,2013-04-13 03:08:00,
2013-04-12 20:13:00,62.2,47.3,29.89,North,0,0.0,0.0,58,0.00,,,0.00,WUHU21623XXSP,2013-04-13 03:13:00,
2013-04-12 20:18:00,61.7,46.8,29.89,North,0,0.0,0.0,58,0.00,,,0.00,WUHU21623XXSP,2013-04-13 03:18:00,
2013-04-12 20:23:00,61.7,47.3,29.90,North,0,0.0,0.0,59,0.00,,,0.00,WUHU21623XXSP,2013-04-13 03:23:00,
2013-04-12 20:28:00,61.5,47.1,29.90,North,0,0.0,0.0,59,0.00,,,0.00,WUHU21623XXSP,2013-04-13 03:28:00,
2013-04-12 20:33:00,61.0,46.6,29.91,North,0,0.0,0.0,59,0.00,,,0.00,WUHU21623XXSP,2013-04-13 03:33:00,
2013-04-12 20:38:00,60.6,46.6,29.91,North,0,0.0,0.0,59,0.00,,,0.00,WUHU21623XXSP,2013-04-13 03:38:00,
2013-04-12 20:43:00,60.6,46.8,29.91,North,0,0.0,0.0,60,0.00,,,0.00,WUHU21623XXSP,2013-04-13 03:43:00,
2013-04-12 20:48:00,60.6,47.2,29.91,North,0,0.0,0.0,61,0.00,,,0.00,WUHU21623XXSP,2013-04-13 03:48:00,
2013-04-12 20:53:00,60.4,47.0,29.91,North,0,0.0,0.0,61,0.00,,,0.00,WUHU21623XXSP,2013-04-13 03:53:00,
2013-04-12 20:58:00,60.3,46.8,29.92,North,0,0.0,0.0,61,0.00,,,0.00,WUHU21623XXSP,2013-04-13 03:58:00,
2013-04-12 21:03:00,60.1,46.6,29.92,North,0,0.0,0.0,61,0.00,,,0.00,WUHU21623XXSP,2013-04-13 04:03:00,
2013-04-12 21:08:00,59.7,46.3,29.92,North,0,0.0,0.0,61,0.00,,,0.00,WUHU21623XXSP,2013-04-13 04:08:00,
2013-04-12 21:13:00,59.4,46.3,29.92,North,0,0.0,0.0,62,0.00,,,0.00,WUHU21623XXSP,2013-04-13 04:13:00,
2013-04-12 21:18:00,59.0,46.0,29.92,North,0,0.0,0.0,62,0.00,,,0.00,WUHU21623XXSP,2013-04-13 04:18:00,
2013-04-12 21:23:00,58.8,46.2,29.93,North,0,0.0,0.0,63,0.00,,,0.00,WUHU21623XXSP,2013-04-13 04:23:00,
2013-04-12 21:28:00,58.3,45.7,29.92,North,0,0.0,0.0,63,0.00,,,0.00,WUHU21623XXSP,2013-04-13 04:28:00,
2013-04-12 21:33:00,58.1,46.0,29.93,North,0,0.0,0.0,64,0.00,,,0.00,WUHU21623XXSP,2013-04-13 04:33:00,
2013-04-12 21:38:00,57.9,46.0,29.93,North,0,0.0,0.0,63,0.00,,,0.00,WUHU21623XXSP,2013-04-13 04:38:00,
2013-04-12 21:43:00,57.4,45.3,29.93,North,0,0.0,0.0,64,0.00,,,0.00,WUHU21623XXSP,2013-04-13 04:43:00,
2013-04-12 21:48:00,56.8,45.2,29.93,North,0,0.0,0.0,65,0.00,,,0.00,WUHU21623XXSP,2013-04-13 04:48:00,
2013-04-12 21:53:00,56.5,45.0,29.93,North,0,0.0,0.0,65,0.00,,,0.00,WUHU21623XXSP,2013-04-13 04:53:00,
2013-04-12 21:58:00,56.1,44.9,29.94,North,0,0.0,0.0,66,0.00,,,0.00,WUHU21623XXSP,2013-04-13 04:58:00,
2013-04-12 22:03:00,55.9,44.7,29.94,North,0,0.0,0.0,66,0.00,,,0.00,WUHU21623XXSP,2013-04-13 05:03:00,
2013-04-12 22:08:00,55.6,44.4,29.94,North,0,0.0,0.0,66,0.00,,,0.00,WUHU21623XXSP,2013-04-13 05:08:00,
2013-04-12 22:13:00,55.4,44.6,29.93,North,0,0.0,0.0,67,0.00,,,0.00,WUHU21623XXSP,2013-04-13 05:13:00,
2013-04-12 22:18:00,55.2,44.4,29.94,North,0,0.0,0.0,67,0.00,,,0.00,WUHU21623XXSP,2013-04-13 05:18:00,
2013-04-12 22:23:00,55.0,44.3,29.94,North,0,0.0,0.0,67,0.00,,,0.00,WUHU21623XXSP,2013-04-13 05:23:00,
2013-04-12 22:28:00,55.2,44.7,29.94,North,0,0.0,0.0,68,0.00,,,0.00,WUHU21623XXSP,2013-04-13 05:28:00,
2013-04-12 22:33:00,55.8,45.4,29.94,North,0,0.0,0.0,68,0.00,,,0.00,WUHU21623XXSP,2013-04-13 05:33:00,
2013-04-12 22:38:00,55.9,45.5,29.94,North,0,0.0,0.0,68,0.00,,,0.00,WUHU21623XXSP,2013-04-13 05:38:00,
2013-04-12 22:43:00,55.2,44.9,29.94,North,0,0.0,0.0,68,0.00,,,0.00,WUHU21623XXSP,2013-04-13 05:43:00,
2013-04-12 22:48:00,55.0,44.7,29.94,North,0,0.0,0.0,68,0.00,,,0.00,WUHU21623XXSP,2013-04-13 05:48:00,
2013-04-12 22:53:00,54.9,44.9,29.94,North,0,0.0,0.0,69,0.00,,,0.00,WUHU21623XXSP,2013-04-13 05:53:00,
2013-04-12 22:58:00,54.5,44.5,29.94,North,0,0.0,0.0,69,0.00,,,0.00,WUHU21623XXSP,2013-04-13 05:58:00,
2013-04-12 23:03:00,54.3,44.4,29.94,North,0,0.0,0.0,69,0.00,,,0.00,WUHU21623XXSP,2013-04-13 06:03:00,
2013-04-12 23:08:00,54.0,44.0,29.93,North,0,0.0,0.0,69,0.00,,,0.00,WUHU21623XXSP,2013-04-13 06:08:00,
2013-04-12 23:13:00,53.8,44.2,29.94,North,0,0.0,0.0,70,0.00,,,0.00,WUHU21623XXSP,2013-04-13 06:13:00,
2013-04-12 23:18:00,53.2,43.7,29.93,North,0,0.0,0.0,70,0.00,,,0.00,WUHU21623XXSP,2013-04-13 06:18:00,
2013-04-12 23:23:00,53.2,44.1,29.93,North,0,0.0,0.0,71,0.00,,,0.00,WUHU21623XXSP,2013-04-13 06:23:00,
2013-04-12 23:28:00,53.1,43.9,29.93,North,0,0.0,0.0,71,0.00,,,0.00,WUHU21623XXSP,2013-04-13 06:28:00,
2013-04-12 23:33:00,52.9,43.8,29.94,North,0,0.0,0.0,71,0.00,,,0.00,WUHU21623XXSP,2013-04-13 06:33:00,
2013-04-12 23:38:00,52.7,43.6,29.94,North,0,0.0,0.0,71,0.00,,,0.00,WUHU21623XXSP,2013-04-13 06:38:00,
2013-04-12 23:44:00,52.7,43.6,29.94,North,0,0.0,0.0,71,0.00,,,0.00,WUHU21623XXSP,2013-04-13 06:44:00,
2013-04-12 23:49:00,52.7,43.4,29.94,North,0,0.0,0.0,71,0.00,,,0.00,WUHU21623XXSP,2013-04-13 06:49:00,
2013-04-12 23:54:00,52.9,43.8,29.94,North,0,0.0,0.0,71,0.00,,,0.00,WUHU21623XXSP,2013-04-13 06:54:00,
2013-04-12 23:59:00,52.9,43.8,29.94,North,0,0.0,0.0,71,0.00,,,0.00,WUHU21623XXSP,2013-04-13 06:59:00,